This demonstration page uses our WeatherBlox Daily Observations layout. Learn more.

Hourly Observations for March 15, 2019

Temp ( °F °C ) Dew Point ( °F °C ) Humidity (%) Winds ( mph kmh ) Pressure ( in mb ) Visibility ( mi km ) Precip ( " mm )
12:15 am 00:15 Clear 31 -0.5 24 -4.2 76 76 WNW 16 26 30.32 1027 10 16.0934 0 0
12:35 am 00:35 Clear 31 -0.6 25 -4.1 77 77 WNW 16 26 30.32 1027 10 16.0934 0 0
12:55 am 00:55 Clear 31 -0.7 25 -4.1 78 78 WNW 15 24 30.33 1027 10 16.0934 0 0
1:15 am 01:15 Clear 30 -1 24 -4.4 78 78 WNW 15 24 30.34 1027 10 16.0934 0 0
1:35 am 01:35 Clear 30 -1.2 24 -4.5 79 79 WNW 14 22 30.34 1027 10 16.0934 0 0
1:55 am 01:55 Clear 30 -1.3 24 -4.6 79 79 WNW 10 17 30.34 1027 10 16.0934 0 0
2:15 am 02:15 Clear 29 -1.5 24 -4.6 80 80 WNW 12 19 30.34 1027 10 16.0934 0 0
2:35 am 02:35 Clear 29 -1.5 24 -4.6 80 80 NW 14 22 30.35 1028 10 16.0934 0 0
2:55 am 02:55 Clear 29 -1.7 24 -4.7 80 80 NW 14 22 30.36 1028 10 16.0934 0 0
3:15 am 03:15 Clear 29 -1.5 23 -5 77 77 WNW 15 24 30.36 1028 10 16.0934 0 0
3:35 am 03:35 Clear 28 -2 23 -5 80 80 NW 12 19 30.38 1029 10 16.0934 0 0
3:55 am 03:55 Clear 29 -1.9 22 -5.3 78 78 NW 13 20 30.37 1029 10 16.0934 0 0
4:15 am 04:15 Clear 29 -1.7 22 -5.5 76 76 NW 13 20 30.37 1029 10 16.0934 0 0
4:35 am 04:35 Clear 28 -2 22 -5.5 77 77 NW 13 20 30.38 1029 10 16.0934 0 0
4:55 am 04:55 Clear 28 -2.2 22 -5.6 78 78 NW 12 19 30.39 1029 10 16.0934 0 0
5:15 am 05:15 Clear 28 -2.3 22 -5.6 78 78 NW 14 22 30.39 1029 10 16.0934 0 0
5:35 am 05:35 Clear 27 -2.6 22 -5.7 80 80 NW 10 17 30.4 1029 10 16.0934 0 0
5:55 am 05:55 Clear 27 -2.6 22 -5.7 80 80 NW 13 20 30.4 1029 10 16.0934 0 0
6:15 am 06:15 Clear 27 -3 21 -5.9 81 81 WNW 10 17 30.42 1030 10 16.0934 0 0
6:35 am 06:35 Clear 27 -2.9 21 -6 79 79 WNW 13 20 30.42 1030 10 16.0934 0 0
6:55 am 06:55 Clear 27 -2.8 21 -6.1 78 78 NW 13 20 30.43 1031 10 16.0934 0 0
7:15 am 07:15 Clear 27 -3 21 -6.2 79 79 NW 10 17 30.45 1031 10 16.0934 0 0
7:35 am 07:35 Clear 26 -3.1 20 -6.5 78 78 WNW 10 17 30.45 1031 10 16.0934 0 0
7:55 am 07:55 Sunny 26 -3.2 20 -6.5 78 78 WNW 12 19 30.46 1031 10 16.0934 0 0
8:15 am 08:15 Sunny 26 -3.2 21 -6.3 79 79 WNW 9 15 30.47 1032 10 16.0934 0 0
8:35 am 08:35 Sunny 26 -3.1 21 -6.2 79 79 NW 8 13 30.47 1032 10 16.0934 0 0
8:55 am 08:55 Sunny 28 -2.5 21 -6 77 77 WNW 9 15 30.46 1032 10 16.0934 0 0
9:15 am 09:15 Sunny 29 -1.9 21 -6 74 74 WNW 9 15 30.46 1032 10 16.0934 0 0
9:35 am 09:35 Sunny 30 -1.2 22 -5.6 72 72 WNW 9 15 30.47 1032 10 16.0934 0 0
9:55 am 09:55 Sunny 30 -0.9 22 -5.5 71 71 WNW 12 19 30.47 1032 10 16.0934 0 0
10:15 am 10:15 Sunny 31 -0.3 23 -5.2 70 70 WNW 10 17 30.47 1032 10 16.0934 0 0
10:35 am 10:35 Sunny 32 0 23 -4.9 70 70 WNW 8 13 30.47 1032 10 16.0934 0 0
10:55 am 10:55 Sunny 33 0.5 23 -5 67 67 WNW 10 17 30.46 1032 10 16.0934 0 0
11:15 am 11:15 Sunny 34 1.2 24 -4.6 66 66 W 8 13 30.46 1032 10 16.0934 0 0
11:35 am 11:35 Sunny 35 1.6 22 -5.3 61 61 W 9 15 30.45 1031 10 16.0934 0 0
11:55 am 11:55 Sunny 36 2.2 23 -5.2 58 58 W 8 13 30.44 1031 10 16.0934 0 0
12:15 pm 12:15 Sunny 37 2.5 23 -5.2 57 57 W 8 13 30.44 1031 10 16.0934 0 0
12:35 pm 12:35 Sunny 38 3.1 21 -5.9 52 52 W 9 15 30.44 1031 10 16.0934 0 0
12:55 pm 12:55 Sunny 38 3.5 21 -6.1 50 50 W 8 13 30.43 1031 10 16.0934 0 0
1:15 pm 13:15 Sunny 39 3.7 22 -5.4 52 52 W 10 17 30.43 1030 10 16.0934 0 0
1:35 pm 13:35 Sunny 39 3.8 23 -5.1 53 53 W 8 13 30.43 1030 10 16.0934 0 0
1:55 pm 13:55 Sunny 39 4 24 -4.7 53 53 W 13 20 30.43 1030 10 16.0934 0 0
2:15 pm 14:15 Sunny 40 4.3 25 -3.9 56 56 W 10 17 30.42 1030 10 16.0934 0 0
2:35 pm 14:35 Sunny 40 4.5 25 -4 54 54 W 10 17 30.41 1030 10 16.0934 0 0
2:55 pm 14:55 Sunny 40 4.7 26 -3.3 57 57 W 9 15 30.4 1030 10 16.0934 0 0
3:15 pm 15:15 Sunny 41 5 25 -3.9 53 53 WNW 7 11 30.4 1029 10 16.0934 0 0
3:35 pm 15:35 Sunny 42 5.3 26 -3.4 54 54 WSW 6 9 30.39 1029 10 16.0934 0 0
3:55 pm 15:55 Sunny 42 5.4 25 -3.8 52 52 W 3 6 30.38 1029 10 16.0934 0 0
4:15 pm 16:15 Sunny 42 5.7 24 -4.2 49 49 W 5 7 30.38 1029 10 16.0934 0 0
4:35 pm 16:35 Sunny 42 5.8 25 -4 50 50 Calm 30.38 1029 10 16.0934 0 0
4:55 pm 16:55 Sunny 43 6 25 -4.1 49 49 Calm 30.38 1029 10 16.0934 0 0
5:15 pm 17:15 Sunny 42 5.7 27 -3 54 54 Calm 30.38 1029 10 16.0934 0 0
5:35 pm 17:35 Sunny 42 5.8 25 -4.1 49 49 Calm 30.37 1028 10 16.0934 0 0
5:55 pm 17:55 Sunny 42 5.8 26 -3.1 53 53 Calm 30.36 1028 10 16.0934 0 0
6:15 pm 18:15 Sunny 42 5.7 26 -3.1 54 54 Calm 30.35 1028 10 16.0934 0 0
6:35 pm 18:35 Sunny 42 5.5 27 -3 55 55 Calm 30.35 1028 10 16.0934 0 0
6:55 pm 18:55 Sunny 41 5.1 29 -1.6 62 62 SE 3 6 30.36 1028 10 16.0934 0 0
7:15 pm 19:15 Sunny 39 3.8 29 -1.5 69 69 SE 3 6 30.36 1028 10 16.0934 0 0
7:35 pm 19:35 Sunny 38 3.2 29 -1.4 72 72 SSE 3 6 30.38 1029 10 16.0934 0 0
7:55 pm 19:55 Clear 37 2.6 29 -1.9 73 73 SE 5 7 30.38 1029 10 16.0934 0 0
8:15 pm 20:15 Clear 37 2.5 29 -1.5 75 75 SSE 3 6 30.38 1029 10 16.0934 0 0
8:35 pm 20:35 Clear 36 2 29 -1.7 77 77 SSE 5 7 30.38 1029 10 16.0934 0 0
8:55 pm 20:55 Clear 35 1.7 28 -2.3 75 75 SSE 6 9 30.39 1029 10 16.0934 0 0
9:15 pm 21:15 Clear 35 1.4 27 -2.6 75 75 SSE 6 9 30.39 1029 10 16.0934 0 0
9:35 pm 21:35 Clear 34 1.2 27 -2.8 75 75 S 3 6 30.39 1029 10 16.0934 0 0
9:55 pm 21:55 Clear 34 1.2 27 -3 74 74 S 3 6 30.39 1029 10 16.0934 0 0
10:15 pm 22:15 Clear 34 1.1 26 -3.1 74 74 S 3 6 30.41 1030 10 16.0934 0 0
10:35 pm 22:35 Clear 33 0.8 26 -3.2 75 75 S 6 9 30.41 1030 10 16.0934 0 0
10:55 pm 22:55 Clear 33 0.7 26 -3.3 75 75 SSW 5 7 30.41 1030 10 16.0934 0 0
11:15 pm 23:15 Clear 33 0.7 26 -3.4 74 74 S 5 7 30.42 1030 10 16.0934 0 0
11:35 pm 23:35 Clear 33 0.8 25 -3.7 72 72 S 7 11 30.42 1030 10 16.0934 0 0
11:55 pm 23:55 Clear 33 0.8 25 -4 71 71 S 6 9 30.41 1030 10 16.0934 0 0

Powered by AerisWeather